Location: South Range
(44.4886°N, 65.7879°W)
Time: 06:44:24
(UTC-03:00)

Iridium 56 - Visible Passes

Search period start: 02 April 2015 00:00
Search period end: 12 April 2015 00:00
Orbit: 776 x 779 km, 86.4° (Epoch: 01 April)

Date Brightness Start Highest point End Pass type
(mag) Time Alt. Az. Time Alt. Az. Time Alt. Az.
02 Apr 5.4 22:01:56 10° N 22:07:11 78° E 22:08:16 57° SSE visible
02 Apr 8.1 23:44:43 10° NW 23:47:18 13° WNW 23:48:46 12° W visible
03 Apr 5.9 21:28:35 10° N 21:33:33 43° E 21:35:18 33° SE visible
03 Apr 7.5 23:09:55 10° NNW 23:14:04 24° W 23:15:48 20° WSW visible
04 Apr 6.6 20:55:33 10° NNE 20:59:46 25° ENE 21:02:22 18° ESE visible
04 Apr 6.6 22:35:49 10° NNW 22:40:43 41° W 22:42:53 28° SW visible
05 Apr 7.2 20:23:07 10° NE 20:25:49 14° ENE 20:28:45 10° ESE visible
05 Apr 5.6 22:02:03 10° N 22:07:17 75° W 22:09:58 29° S visible
06 Apr 5.5 21:28:33 10° N 21:33:44 62° E 21:37:07 22° SSE visible
06 Apr 8.0 23:10:38 10° NW 23:14:00 17° W 23:17:09 10° WSW visible
07 Apr 6.2 20:55:18 10° NNE 21:00:02 35° ENE 21:04:17 13° SE visible
07 Apr 7.2 22:36:12 10° NNW 22:40:42 29° W 22:44:48 11° SW visible
08 Apr 6.9 20:22:26 10° NNE 20:26:11 20° ENE 20:30:05 10° ESE visible
08 Apr 6.2 22:02:15 10° NNW 22:07:19 52° W 22:12:02 12° SSW visible
09 Apr 5.5 21:28:35 10° N 21:33:51 87° E 21:39:04 10° S visible
09 Apr 8.3 23:11:54 10° NW 23:13:53 12° WNW 23:15:34 10° W visible
10 Apr 5.8 20:55:10 10° N 21:00:14 49° E 21:05:18 10° SSE visible
10 Apr 7.8 22:36:44 10° NNW 22:40:39 21° W 22:44:25 10° SW visible
11 Apr 7.0 22:02:32 10° NNW 22:07:20 37° W 22:12:03 10° SSW visible
